DW8016 Weather Reports


time (UTC)temp
F
wind
direction
speed
knots
gust
knots
rain 1hr
in
rain 24hr
in
rain mn
in
humidity
%
barometer
mb
20260503050704 48 339 0.0 0.9 0.00 0.00 0.00 60 1013.0
20260503044555 49 339 0.0 0.0 0.00 0.00 0.00 58 1013.1
20260503043616 49 339 0.0 0.0 0.00 0.00 0.00 57 1013.1
20260503042543 49 339 0.0 0.0 0.00 0.00 0.00 56 1013.2
20260503041559 50 339 0.0 0.0 0.00 0.00 0.00 55 1013.1
20260503035503 51 345 0.0 4.3 0.00 0.00 0.00 54 1013.1
20260503034507 51 5 0.0 4.3 0.00 0.00 0.00 54 1013.0
20260503033527 52 355 0.9 4.3 0.00 0.00 0.00 52 1012.9
20260503032501 52 338 0.0 2.6 0.00 0.00 0.00 52 1012.8
20260503031509 52 332 0.0 2.6 0.00 0.00 0.00 52 1012.8
20260503030519 53 332 0.0 0.9 0.00 0.00 0.00 51 1012.8
20260503025511 53 332 0.0 2.6 0.00 0.00 0.00 50 1012.8
20260503024516 53 13 0.0 3.5 0.00 0.00 0.00 50 1012.8
20260503023500 53 334 0.0 3.5 0.00 0.00 0.00 50 1012.8
20260503021339 53 286 0.0 0.9 0.00 0.00 0.00 51 1012.7
20260503020403 52 286 0.0 0.0 0.00 0.00 0.00 52 1012.6
20260503015423 52 286 0.0 0.0 0.00 0.00 0.00 54 1012.6
20260503014418 52 286 0.0 0.0 0.00 0.00 0.00 54 1012.4
20260503013410 53 286 0.0 0.0 0.00 0.00 0.00 54 1012.4
20260503012340 53 286 0.0 0.0 0.00 0.00 0.00 54 1012.3
20260503011307 53 286 0.0 0.0 0.00 0.00 0.00 52 1012.2
20260503005137 54 286 0.0 0.0 0.00 0.00 0.00 50 1011.8
20260503004152 54 286 0.0 0.0 0.00 0.00 0.00 49 1011.7
20260503003132 55 286 0.0 0.0 0.00 0.00 0.00 48 1011.7
20260503002112 55 286 0.0 0.0 0.00 0.00 0.00 48 1011.6
20260503001123 56 286 0.0 0.0 0.00 0.00 0.00 46 1011.4
20260503000136 56 347 0.0 3.5 0.00 0.00 0.00 45 1011.2
20260502235103 56 346 0.0 1.7 0.00 0.00 0.00 45 1011.1
20260502234044 56 346 0.0 2.6 0.00 0.00 0.00 45 1011.0
20260502233050 57 346 0.0 2.6 0.00 0.00 0.00 44 1011.0
20260502232045 57 346 0.0 3.5 0.00 0.00 0.00 45 1010.8
20260502231043 57 5 0.0 2.6 0.00 0.00 0.00 44 1011.0
20260502230050 57 344 0.0 2.6 0.00 0.00 0.00 42 1010.9
20260502225111 58 344 0.0 3.5 0.00 0.00 0.00 44 1010.9
20260502224122 58 344 0.0 2.6 0.00 0.00 0.00 43 1010.8
20260502223121 58 336 0.0 0.0 0.00 0.00 0.00 43 1010.7
20260502220944 59 317 0.0 2.6 0.00 0.00 0.00 41 1010.9
20260502215913 59 317 0.0 3.5 0.00 0.00 0.00 41 1010.9
20260502214907 59 355 0.0 4.3 0.00 0.00 0.00 40 1010.9
20260502213835 60 336 0.9 6.1 0.00 0.00 0.00 39 1010.7
20260502212855 61 292 0.9 7.8 0.00 0.00 0.00 38 1010.7
20260502211833 61 5 1.7 7.8 0.00 0.00 0.00 37 1010.6
20260502210806 62 290 0.9 7.0 0.00 0.00 0.00 34 1010.6
20260502205801 62 337 0.9 7.0 0.00 0.00 0.00 34 1010.5
20260502204815 62 348 0.9 5.2 0.00 0.00 0.00 35 1010.5
20260502203805 62 312 0.0 3.5 0.00 0.00 0.00 35 1010.5
20260502202739 63 325 0.9 6.1 0.00 0.00 0.00 35 1010.5
20260502201756 64 281 0.9 6.1 0.00 0.00 0.00 33 1010.4
20260502200803 63 335 0.9 5.2 0.00 0.00 0.00 33 1010.3
20260502195820 64 306 0.9 5.2 0.00 0.00 0.00 34 1010.4
20260502193712 65 300 0.9 5.2 0.00 0.00 0.00 35 1010.8
20260502192705 65 268 1.7 4.3 0.00 0.00 0.00 32 1010.9
20260502191701 65 281 1.7 5.2 0.00 0.00 0.00 33 1011.1
20260502190656 64 294 2.6 6.1 0.00 0.00 0.00 34 1011.3
20260502185658 64 306 1.7 6.1 0.00 0.00 0.00 36 1011.5
20260502184711 63 19 0.9 5.2 0.00 0.00 0.00 37 1011.6
20260502183700 63 295 0.9 4.3 0.00 0.00 0.00 39 1011.9
20260502182648 60 292 0.0 2.6 0.00 0.00 0.00 38 1012.1
20260502181710 60 294 0.0 3.5 0.00 0.00 0.00 38 1012.2
20260502180728 61 219 0.0 3.5 0.00 0.00 0.00 41 1012.3
20260502170517 60 355 0.9 4.3 0.00 0.00 0.00 41 1012.7
20260502163526 58 304 0.0 4.3 0.00 0.00 0.00 43 1013.1
20260502162510 58 288 0.0 2.6 0.00 0.00 0.00 45 1013.2
20260502161458 58 296 0.9 4.3 0.00 0.00 0.00 44 1013.1
20260502160449 58 329 0.0 4.3 0.00 0.00 0.00 46 1013.2
20260502152330 56 59 0.0 4.3 0.00 0.00 0.00 51 1013.4
20260502151322 55 15 0.9 4.3 0.00 0.00 0.00 49 1013.6
20260502150334 55 44 0.9 5.2 0.00 0.00 0.00 51 1013.6
20260502121747 50 22 0.0 5.2 0.00 0.00 0.00 63 1013.4
20260502120803 50 334 0.9 5.2 0.00 0.00 0.00 64 1013.5
20260502115803 49 331 0.9 5.2 0.00 0.00 0.00 66 1013.4
20260502114745 49 355 1.7 5.2 0.00 0.00 0.00 66 1013.1
20260502113807 49 342 1.7 4.3 0.00 0.00 0.00 66 1013.2
20260502112750 49 337 1.7 5.2 0.00 0.00 0.00 65 1013.3
20260502111737 49 346 0.9 5.2 0.00 0.00 0.00 65 1013.3
20260502105554 50 329 0.9 5.2 0.00 0.00 0.00 65 1013.0
20260502104528 50 327 0.9 5.2 0.00 0.00 0.00 65 1012.8
20260502102423 50 320 0.9 3.5 0.00 0.00 0.00 64 1012.6
20260502101440 50 295 0.0 2.6 0.00 0.00 0.00 64 1012.6
20260502100425 50 300 0.9 4.3 0.00 0.00 0.00 63 1012.5
20260502091251 52 344 0.0 3.5 0.00 0.00 0.00 64 1011.8
20260502090301 52 348 0.0 2.6 0.00 0.00 0.00 64 1011.6
20260502071054 54 287 0.0 0.0 0.00 0.00 0.00 72 1011.6
20260502070047 54 287 0.0 0.9 0.00 0.00 0.00 72 1011.5
20260502065046 54 287 0.0 0.9 0.00 0.00 0.00 72 1011.3
20260502064026 55 287 0.0 0.9 0.00 0.00 0.00 71 1011.3
20260502061916 55 287 0.0 2.6 0.00 0.00 0.00 70 1011.5
20260502060852 56 261 0.0 3.5 0.00 0.00 0.00 70 1011.8
20260502055822 56 296 0.0 2.6 0.00 0.00 0.00 72 1011.9
20260502054816 56 290 0.0 0.9 0.00 0.00 0.00 72 1012.0
20260502053745 56 290 0.0 0.9 0.00 0.00 0.00 72 1011.9
20260502052713 56 290 0.0 0.0 0.00 0.00 0.00 74 1011.9
20260502051728 56 290 0.0 0.0 0.00 0.00 0.00 74 1012.0